{"data":{"norad_id":63298,"epoch":"2026-09-22T21:39:40.023648Z","epoch_age_seconds":101230,"freshness":"FRESH","line1":"1 63298U 25055H   26265.90254657  .00051308  00000+0  99984-3 0  9992","line2":"2 63298  97.6640  57.3819 0004579 155.7760 204.3706 15.47368869 84518","mean_motion":15.47368869,"eccentricity":0.0004579,"inclination_deg":97.664,"raan_deg":57.3819,"arg_perigee_deg":155.776,"mean_anomaly_deg":204.3706,"bstar":0.00099984,"rev_number":8451,"period_min":93.061197549529,"perigee_km":421.31160692019,"apogee_km":427.54139457418,"semimajor_km":6802.5635007472,"source":"CELESTRAK","updated_at":"2026-09-23T09:00:21.958276Z"}}